BELINTERSAT-1

Last updated on Thu Nov 21 2024 00:02:43 GMT+0000 (Coordinated Universal Time)

1 41238U 16001A 24325.23407120 .00000107 00000+0 00000+0 0 9997 2 41238 0.0329 85.9858 0002017 156.4127 313.1502 1.00274320 32484
UTC large
Height (km)
Speed (km/s)
/
Latitude / Longitude
Inclination (degrees)
Orbital Period (minutes)
Azimuth
Elevation
Range (km)
Doppler Factor

Next 0 passes for location: London (51.5072 / 0.1276)

Sorry there are no passes over London.